Regional Weather Roundup
Issued by NWS

Home | Current Version | Previous Version | Graphics & Text | Print | Product List | Glossary On
Versions: 1 2 3 4 5 6 7 8 9 10 11 12 13 14 15 16 17 18 19 20 21 22 23 24 25 26 27 28 29 30 31 32 33 34 35 36 37 38 39 40 41 42 43 44 45 46 47 48 49 50
000
ASUS43 KOAX 301702
RWRNE

WEATHER ROUNDUP FOR NEBRASKA
NATIONAL WEATHER SERVICE OMAHA NE
1200 PM CDT MON MAY 30 2016

NOTES: SATELLITE DATA IS BEING USED TO AUGMENT CLOUD COVER ABOVE
       12000 FEET.
       "FAIR" INDICATES FEW OR NO CLOUDS BELOW 12,000 FEET WITH NO
       SIGNIFICANT WEATHER AND/OR OBSTRUCTIONS TO VISIBILITY.

  * THESE STATIONS DO NOT REPORT WEATHER SUCH AS RAIN...SNOW OR FOG.

NEZ001>004-019>022-054>056-301800-
NEBRASKA PANHANDLE

CITY           SKY/WX    TMP DP  RH WIND       PRES   REMARKS
SCOTTSBLUFF    SUNNY     75  48  38 NW9       29.95F
ALLIANCE       SUNNY     77  45  32 W10       29.93F
CHADRON        SUNNY     78  48  34 W8        29.90S
SIDNEY         SUNNY     76  48  37 S7        29.97F
$$

NEZ057>060-069>072-079>082-301800-
SOUTHWEST NEBRASKA

CITY           SKY/WX    TMP DP  RH WIND       PRES   REMARKS
NORTH PLATTE   SUNNY     75  56  51 S8        29.96F
IMPERIAL       SUNNY     72  54  53 S7        29.97F
LEXINGTON      SUNNY     76  55  47 S9        29.96F
MCCOOK         SUNNY     76  54  46 S9        29.96F
$$

NEZ005>010-023>029-035>040-094-301800-
NORTH CENTRAL NEBRASKA

CITY           SKY/WX    TMP DP  RH WIND       PRES   REMARKS
VALENTINE      MOSUNNY   74  52  46 S17       29.90F
AINSWORTH      MOSUNNY   74  53  47 S15       29.94F
BROKEN BOW     SUNNY     76  57  51 S10       29.96F
ORD            MOSUNNY   76  59  55 SE8       29.95F
$$

NEZ041-046>049-061>064-073>077-083>087-301800-
SOUTH CENTRAL NEBRASKA

CITY           SKY/WX    TMP DP  RH WIND       PRES   REMARKS
GRAND ISLAND   MOSUNNY   75  60  59 SE8       29.98F
HASTINGS       SUNNY     76  61  59 S10       29.97F
KEARNEY *      SUNNY     77  57  50 S9G16     29.98F
YORK           CLOUDY    77  59  53 SE10      29.98F
$$

NEZ011>018-030>034-042>045-301800-
NORTHEAST NEBRASKA

CITY           SKY/WX    TMP DP  RH WIND       PRES   REMARKS
NORFOLK        CLOUDY    78  56  46 SE13G18   29.96F
BLAIR          CLOUDY    81  60  49 S7        29.98F
FREMONT        CLOUDY    77  59  53 SE6       29.98F
TEKAMAH        CLOUDY    83  53  35 SE13      29.97F
$$

NEZ050>053-065>068-078-088>093-301800-
SOUTHEAST NEBRASKA

CITY           SKY/WX    TMP DP  RH WIND       PRES   REMARKS
LINCOLN        MOSUNNY   80  62  54 VRB3      29.98F
OMAHA EPPLEY   CLOUDY    82  62  50 S10       29.97F
FALLS CITY     SUNNY     83  68  60 SW7       29.98F
PLATTSMOUTH    MOSUNNY   83  62  49 SW7       29.99F
$$

NEZ044-045-051>053-067-301800-
OMAHA AREA

CITY           SKY/WX    TMP DP  RH WIND       PRES   REMARKS
OMAHA EPPLEY   CLOUDY    82  62  50 S10       29.97F
BLAIR          CLOUDY    81  60  49 S7        29.98F
FREMONT        CLOUDY    77  59  53 SE6       29.98F
OFFUTT AFB     MOSUNNY   79  63  57 W5        29.97F
PLATTSMOUTH    MOSUNNY   83  62  49 SW7       29.99F
$$



USA.gov is the U.S. government's official web portal to all federal, state and local government web resources and services.